Weather History for Barter Island, AK

Change the Weather History Date:

Friday, December 13, 2013

  Actual Average Record
Temperature  
Mean Temperature -19 °F -  
Max Temperature -11 °F 1 °F 24 °F (2002)
Min Temperature -27 °F -7 °F -34 °F (2004)
Degree Days  
Heating Degree Days 84    
Moisture  
Dew Point -29 °F    
Average Humidity 75    
Maximum Humidity 82    
Minimum Humidity 69    
Precipitation  
Precipitation 0.00 in - - ()
Sea Level Pressure  
Sea Level Pressure 30.16 in    
Wind  
Wind Speed 9 mph (WSW)    
Max Wind Speed 12 mph    
Max Gust Speed -    
Visibility 9 miles    
Events Snow    
Averages and records for this station are not official NWS values.
T = Trace of Precipitation, MM = Missing Value Source: NWS Daily Summary

Daily Weather History Graph

Daily Weather History Graph

Search for Another Location

Airport:

Trip Planner

Search our weather history database for the weather conditions in past years. The results will help you decide how hot, cold, wet, or windy it might be!

Date:

Astronomy

Dec. 31, 1969 Rise Set
Actual Time Sun does not rise Sun does not rise
Civil Twilight 10:22 AM AKST 2:35 PM AKST
Nautical Twilight 8:33 AM AKST 4:23 PM AKST
Astronomical Twilight 7:13 AM AKST 5:43 PM AKST
Moon 12:33 PM AKST (12/13) 6:36 AM AKST (12/13)
Length of Visible Light 4h 13m
Length of Day
0h 00m
Waxing Gibbous, 89% of the Moon is Illuminated
Dec 13
Waxing Gibbous
Dec 17
Full
Dec 25
Last Quarter
Jan 1
New
Jan 7
First Quarter

Hourly Weather History & Observations

Time (AKST) Temp. Windchill Dew Point Humidity Pressure Visibility Wind Dir Wind Speed Gust Speed Precip Events Conditions
12:01 AM -13.0 °F -32.4 °F -17.0 °F 82% 30.39 in 10.0 mi NE 10.4 mph - N/A   Clear
1:01 AM -11.9 °F -29.9 °F -16.1 °F 82% 30.37 in 10.0 mi NE 9.2 mph - N/A   Clear
2:01 AM -20.9 °F -41.0 °F -27.0 °F 73% 30.34 in 10.0 mi SW 9.2 mph - N/A   Clear
3:01 AM -20.9 °F -34.3 °F -26.0 °F 77% 30.31 in 10.0 mi West 4.6 mph - N/A   Clear
4:01 AM -23.1 °F -38.9 °F -29.0 °F 74% 30.28 in 10.0 mi SSW 5.8 mph - N/A   Clear
5:01 AM -22.0 °F -41.0 °F -27.0 °F 77% 30.26 in 8.0 mi West 8.1 mph - 0.00 in Snow Light Snow
6:01 AM -20.9 °F -43.3 °F -27.0 °F 73% 30.24 in 10.0 mi WSW 11.5 mph - 0.00 in   Clear
7:01 AM -20.9 °F -43.3 °F -26.0 °F 77% 30.22 in 10.0 mi West 11.5 mph - 0.00 in Snow Light Snow
8:01 AM -20.0 °F -41.1 °F -25.1 °F 78% 30.20 in 10.0 mi West 10.4 mph - 0.00 in   Clear
9:01 AM -20.9 °F -39.7 °F -26.0 °F 77% 30.19 in 10.0 mi West 8.1 mph - N/A   Clear
10:01 AM -20.9 °F -41.0 °F -26.0 °F 77% 30.17 in 10.0 mi West 9.2 mph - 0.00 in   Clear
11:01 AM -22.0 °F -43.6 °F -27.0 °F 77% 30.15 in 9.0 mi West 10.4 mph - 0.00 in Snow Light Snow
11:56 AM -23.8 °F -43.2 °F -29.2 °F 76% 30.14 in 9.0 mi WSW 8.1 mph - 0.00 in   Mostly Cloudy
12:01 PM -23.1 °F -42.3 °F -29.0 °F 74% 30.14 in 8.0 mi West 8.1 mph - 0.00 in Snow Light Snow
12:13 PM -23.8 °F -44.5 °F -29.2 °F 76% 30.13 in 5.0 mi West 9.2 mph - 0.00 in Snow Light Snow
1:01 PM -24.0 °F -46.0 °F -29.9 °F 74% 30.13 in 8.0 mi West 10.4 mph - 0.00 in   Clear
2:01 PM -23.1 °F -40.7 °F -29.0 °F 74% 30.12 in 9.0 mi West 6.9 mph - 0.00 in Snow Light Snow
3:01 PM -27.0 °F -45.5 °F -33.0 °F 73% 30.10 in 9.0 mi WSW 6.9 mph - 0.00 in Snow Light Snow
4:01 PM -26.0 °F -42.4 °F -32.1 °F 73% 30.07 in 10.0 mi SW 5.8 mph - 0.00 in   Clear
5:01 PM -26.0 °F -47.2 °F -32.1 °F 73% 30.06 in 10.0 mi SW 9.2 mph - N/A   Clear
6:01 PM -26.0 °F -45.8 °F -32.1 °F 73% 30.05 in 10.0 mi SW 8.1 mph - N/A   Clear
7:01 PM -27.9 °F -44.7 °F -34.1 °F 73% 30.05 in 9.0 mi SW 5.8 mph - N/A   Clear
8:01 PM -26.0 °F -44.2 °F -32.1 °F 73% 30.03 in 10.0 mi WSW 6.9 mph - N/A   Clear
9:01 PM -27.4 °F -44.1 °F -34.6 °F 69% 30.02 in 5.0 mi SW 5.8 mph - 0.00 in Snow Light Snow
10:01 PM -27.9 °F -39.8 °F -34.1 °F 73% 30.01 in 10.0 mi SW 3.5 mph - 0.00 in   Clear
11:01 PM -27.9 °F -42.5 °F -35.0 °F 69% 30.00 in 10.0 mi South 4.6 mph - N/A   Clear